Preview of NWS' New Version of Forecast
This preview is not operational and should not be used for support decisions.

Regional Weather Roundup (RWR)

Issued by Gray - Portland, ME (GYX)

                            
000
ASUS41 KGYX 161210
RWRGYX
WEATHER ROUNDUP FOR MAINE AND NEW HAMPSHIRE
NATIONAL WEATHER SERVICE GRAY ME
800 AM EDT SUN JUN 16 2019

MEZ002-005-006-010-012-015-018-020-021-024-026-027-029-161300-
MAINE
  
CITY           SKY/WX    TMP DP  RH WIND       PRES   REMARKS
PORTLAND       LGT RAIN  67  58  72 SW7       29.86R                  
6HR MIN TEMP:  62; 6HR MAX TEMP:  67; 6HR PCP: TRACE;                

SANFORD        FAIR      65  60  84 SW7       29.87S                  
BAR HARBOR     FAIR      66  55  67 NE3       29.87R                  
WISCASSET      FAIR      63  56  78 SW5       29.87R                  
6HR MIN TEMP:  60; 6HR MAX TEMP:  63;                                

ROCKLAND       PTSUNNY   62  57  83 SW5       29.86R                  
FRYEBURG       FAIR      68  57  68 SW6       29.85S                  
6HR MIN TEMP:  65; 6HR MAX TEMP:  69;                                

LEWISTONAUBURN FAIR      69  58  67 CALM      29.85S                  
AUGUSTA        CLOUDY    66  57  72 E6        29.87R                  
6HR MIN TEMP:  59; 6HR MAX TEMP:  67; 6HR PCP: TRACE;                

WATERVILLE     CLOUDY    64  57  78 CALM      29.84R                  
BANGOR         FAIR      66  53  63 CALM      29.86R                  
6HR MIN TEMP:  57; 6HR MAX TEMP:  67; 6HR PCP: TRACE;                

GREENVILLE       N/A     60  52  74 NW7       29.83S                  
6HR MIN TEMP:  51; 6HR MAX TEMP:  60;                                

MILLINOCKET    FAIR      63  52  67 NW9       29.86R                  
6HR MIN TEMP:  53; 6HR MAX TEMP:  63;                                

HOULTON        FAIR      61  52  72 W8        29.82R                  
6HR MIN TEMP:  52; 6HR MAX TEMP:  61; 6HR PCP:  0.01;                

PRESQUE ISLE   FAIR      58  51  78 W14G20    29.81S                  
6HR MIN TEMP:  51; 6HR MAX TEMP:  58; 6HR PCP: TRACE;                

FRENCHVILLE    PTSUNNY   57  50  77 W8        29.79R                  
6HR MIN TEMP:  52; 6HR MAX TEMP:  58; 6HR PCP:  0.01;                

CARIBOU        FAIR      58  50  75 W12G20    29.80R                  
6HR MIN TEMP:  51; 6HR MAX TEMP:  58; 6HR PCP: TRACE;                

$$

NHZ002-005-008-009-011-012-014-161300-
NEW HAMPSHIRE
  
CITY           SKY/WX    TMP DP  RH WIND       PRES   REMARKS
PORTSMOUTH     CLOUDY    64  61  88 SW7       29.86S                  
ROCHESTER      FAIR      65  60  84 S3        29.87S                  
6HR MIN TEMP:  63; 6HR MAX TEMP:  70; 6HR PCP: TRACE;                

NASHUA         LGT RAIN  66  64  93 CALM      29.89S                  
MANCHESTER     LGT RAIN  65  61  87 S6        29.87S                  
6HR MIN TEMP:  64; 6HR MAX TEMP:  72; 6HR PCP:  0.04;                

CONCORD        PTSUNNY   66  59  78 S7        29.88S                  
6HR MIN TEMP:  63; 6HR MAX TEMP:  71; 6HR PCP: TRACE;                

LACONIA        PTSUNNY   67  58  72 SW6       29.87R                  
PLYMOUTH       PTSUNNY   66  58  74 NW3       29.86S                  
BERLIN         CLOUDY    63  54  72 VRB5      29.87R                  
6HR MIN TEMP:  60; 6HR MAX TEMP:  63;                                

WHITEFIELD     CLOUDY    62  57  83 SW5       29.87R                  
6HR MIN TEMP:  58; 6HR MAX TEMP:  63; 6HR PCP: TRACE;                

JAFFREY        LGT RAIN  62  59  90 SW6       29.91R                  
6HR MIN TEMP:  61; 6HR MAX TEMP:  67; 6HR PCP:  0.05;                

KEENE          CLOUDY    63  61  94 S3        29.89S                  
LEBANON        CLOUDY    68  57  68 SW5       29.86S                  
6HR MIN TEMP:  64; 6HR MAX TEMP:  69;                                

MT WASHINGTON  FOG       43  43 100 W39         N/A  VSB 0            
6HR MIN TEMP:  42; 6HR MAX TEMP:  44; 6HR PCP:  0.13;                

$$

VTZ005-007-008-161300-
VERMONT
  
CITY           SKY/WX    TMP DP  RH WIND       PRES   REMARKS
ST JOHNSBURY     N/A     63  58  83 MISG      29.84S                  
MONTPELIER     CLOUDY    61  58  90 CALM      29.91R                  
BURLINGTON     PTSUNNY   62  56  80 NE3       29.86R                  
$$

MAZ007-012-024-CTZ003-RIZ002-NYZ038-NYZ072-161300-
SOUTHERN NEW ENGLAND AND NY
  
CITY           SKY/WX    TMP DP  RH WIND       PRES   REMARKS
BOSTON         CLOUDY    68  60  75 SW13      29.90S                  
WORCESTER      CLOUDY    61  60  97 SW9       29.92R                  
NANTUCKET      FAIR      62  59  90 SW12      29.98R                  
PROVIDENCE     CLOUDY    65  62  90 SW7       29.93S                  
HARTFORD       PTSUNNY   66  62  87 S7        29.89S                  
ALBANY         PTSUNNY   66  61  84 S8        29.87R                  
NEW YORK CITY  PTSUNNY   71  60  68 S9        29.90F                  
$$

ANZ081-ANZ082-ANZ150-NHZ014-MEZ023>029-161300-
COASTAL MARINE OBSERVATIONS
  
STATION/POSITION TIME  TEMP    WIND        PRES    WAVE
                       AIR SEA DIR/SP/G            HT/PER
                 (UTC) (F)     (DEG/KT/KT) (MB)    (FT/S)
ISLE OF SHOALS   1100   63     220/ 15/ 15 1011.2R
JEFFREYS LEDGE   1138      54                N/A     3/ 5
CASHES LEDGE BUO 1150   55 50  200/ 10/ 12 1012.6S   4/ 6
GEORGES BANK BUO 1150   56 51  210/ 16/ 17 1018.1R   4/ 7
$$

.............KEY..............
   WCI - WIND CHILL
   TC  - TEMPERATURE IN CELSIUS
   VSB - VISIBILITY IN MILES
   HX  - HEAT INDEX
   FAIR- INDICATES FEW OR NO CLOUDS BELOW 12,000 FT, WITH NO 
         SIGNIFICANT WEATHER AND/OR OBSTRUCTIONS TO VISIBILITY.